Nashua, NH

4:05 PM EST on November 17, 2019 (GMT -0500)
Boire

Weather History for KASH - August, 2019

Change the Weather History Date:

Saturday, August 3, 2019

  Actual Average Record
Temperature  
Mean Temperature 72 °F -  
Max Temperature 82 °F 84 °F 95 °F (2007)
Min Temperature 62 °F 61 °F 39 °F (1953)
Cooling Degree Days 6    
Growing Degree Days 22 (Base 50)    
Moisture  
Dew Point 67 °F    
Average Humidity 86    
Maximum Humidity 100    
Minimum Humidity 66    
Precipitation  
Precipitation 0.01 in - - ()
Sea Level Pressure  
Sea Level Pressure 30.00 in    
Wind  
Wind Speed 1 mph (South)    
Max Wind Speed 6 mph    
Max Gust Speed -    
Visibility 10 miles    
Events Rain    
Averages and records for this station are not official NWS values.
T = Trace of Precipitation, MM = Missing Value Source: NWS Daily Summary

Daily Weather History Graph

Daily Weather History Graph

Search for Another Location

Airport or City:

Astronomy

Aug. 03, 2019 Rise Set
Actual Time 5:39 AM EDT 8:04 PM EDT
Civil Twilight 5:07 AM EDT 8:36 PM EDT
Nautical Twilight 4:27 AM EDT 9:15 PM EDT
Astronomical Twilight 3:43 AM EDT 9:59 PM EDT
Moon 8:31 AM EDT (8/3) 10:04 PM EDT (8/3)
Length of Visible Light 15h 28m
Length of Day
14h 25m
Waxing Crescent, 10% of the Moon is Illuminated
Aug 3
Waxing Crescent
Aug 7
First Quarter
Aug 15
Full
Aug 23
Last Quarter
Aug 30
New

Hourly Weather History & Observations

Time (EDT) Temp. Heat Index Dew Point Humidity Pressure Visibility Wind Dir Wind Speed Gust Speed Precip Events Conditions
12:56 AM 64.0 °F - 60.1 °F 87% 30.10 in 10.0 mi Calm Calm - N/A   Clear
1:56 AM 64.0 °F - 61.0 °F 90% 30.09 in 10.0 mi Calm Calm - N/A   Clear
2:56 AM 64.0 °F - 62.1 °F 93% 30.08 in 10.0 mi Calm Calm - N/A   Mostly Cloudy
3:56 AM 63.0 °F - 62.1 °F 97% 30.08 in 10.0 mi Calm Calm - N/A   Clear
4:56 AM 63.0 °F - 63.0 °F 100% 30.06 in 10.0 mi Calm Calm - N/A   Clear
5:56 AM 62.1 °F - 61.0 °F 96% 30.06 in 10.0 mi Calm Calm - N/A   Clear
6:56 AM 64.0 °F - 63.0 °F 96% 30.06 in 10.0 mi Calm Calm - N/A   Mostly Cloudy
7:56 AM 66.9 °F - 66.0 °F 97% 30.06 in 10.0 mi Calm Calm - N/A   Overcast
8:56 AM 73.0 °F - 66.9 °F 81% 30.05 in 10.0 mi South 4.6 mph - N/A   Overcast
9:56 AM 72.0 °F - 68.0 °F 87% 30.05 in 10.0 mi Calm Calm - 0.00 in   Mostly Cloudy
10:56 AM 73.0 °F - 71.1 °F 93% 30.04 in 7.0 mi Calm Calm - 0.01 in Rain Light Rain
11:56 AM 75.9 °F - 71.1 °F 85% 30.02 in 10.0 mi Variable 4.6 mph - 0.00 in   Mostly Cloudy
12:56 PM 78.1 °F - 71.1 °F 79% 30.01 in 10.0 mi Variable 3.5 mph - N/A   Overcast
1:56 PM 80.1 °F 83.8 °F 72.0 °F 76% 29.98 in 10.0 mi Variable 3.5 mph - N/A   Mostly Cloudy
2:56 PM 81.0 °F 85.8 °F 73.0 °F 77% 29.96 in 10.0 mi Calm Calm - N/A   Mostly Cloudy
3:56 PM 80.1 °F 83.6 °F 71.1 °F 74% 29.94 in 10.0 mi Variable 4.6 mph - N/A   Mostly Cloudy
4:56 PM 80.1 °F 83.8 °F 72.0 °F 76% 29.93 in 10.0 mi Variable 5.8 mph - N/A   Mostly Cloudy
5:56 PM 79.0 °F - 66.9 °F 66% 29.92 in 10.0 mi Variable 5.8 mph - N/A   Mostly Cloudy
6:56 PM 78.1 °F - 69.1 °F 74% 29.92 in 10.0 mi Variable 3.5 mph - N/A   Scattered Clouds
7:56 PM 75.9 °F - 70.0 °F 82% 29.92 in 10.0 mi Calm Calm - N/A   Scattered Clouds
8:56 PM 73.9 °F - 70.0 °F 87% 29.93 in 10.0 mi Calm Calm - N/A   Scattered Clouds
9:56 PM 73.0 °F - 69.1 °F 87% 29.92 in 10.0 mi Calm Calm - N/A   Clear
10:56 PM 72.0 °F - 69.1 °F 91% 29.92 in 10.0 mi Calm Calm - N/A   Clear
11:56 PM 69.1 °F - 69.1 °F 100% 29.92 in 10.0 mi Calm Calm - N/A   Clear